FENGYUN 1C DEB

Satellite information

Favourite Embed

Satellite Type and Status

DEBRISIN ORBIT

Key statistics

Satellite FENGYUN 1C DEB at a glance.

Uptime

9556

Days in orbit

Revolutions

≈ 14.2

Per day

Orbit

SSO

Sun Synchronous Orbit

Inclination

98.4

Latest

Satellite identification and parameters

Extended collection of information and parameters for FENGYUN 1C DEB.

Object identification

Identified? True

Debris? True

Object name: FENGYUN 1C DEB

International designator: 1999-025AMK

Object number (NORAD): 30604

Object ID (CCSDS): 30604

Country: PEOPLES REPUBLIC OF CHINA (PRC)

Current information (Y/N): Y

RCS size: SMALL

Orbital parameters

Period: 101.175 minutes

Inclination: 98.4213 deg

SMA: 7192.416 km

Apoapsis: 966.699 km

Periapsis: 661.864 km

RAAN: 230.2786 deg

Eccentricy: 0.0211914

Argument of periapsis: 108.7467 deg

Mean anomaly: 19.9768 deg

Mean motion: 14.2328066 rev/day

Mean motion (dot): 0.00000702 rev/day2

B* drag term: 0.00026121 1/REarth

Two-line elements (TLE)

Creation date: July 8, 2025, 2:27 a.m.

Reference frame: TEME

Reference center: EARTH

Epoch: July 7, 2025, 4:05 p.m. UTC

TLE line 0: 0 FENGYUN 1C DEB

TLE line 1: 1 30604U 99025AMK 25188.67039183 .00000702 00000-0 26121-3 0 9993

TLE line 2: 2 30604 98.4213 230.2786 0211914 108.7467 19.9768 14.23280660955901

Live tracking on map

Real-time ground track for satellite FENGYUN 1C DEB.

In-orbit conjunctions

A list of the most updated potential collisions computed for object FENGYUN 1C DEB.

Target Orbit TCA Probability of collision Miss distance Type
CZ-6A DEB LEO 2025-04-19 06:48:12 0.0001375297 140.0 (m) DEBRIS
CZ-4B R/B SSO 2024-07-25 15:44:19 0.0001013464 996.0 (m) ROCKET BODY

Associated space launch

Chinese polar orbiting meteorological satellite

FENGYUN 1C DEB was lifted into orbit during the mission ‘Long March 4B | Feng Yun 1C’, on board a Long March 4B space rocket.

The launch took place on May 10, 1999, 1:33 a.m. from Launch Complex 7.

For more information about the launch, click the button.

Launch to space Long March 4B | Feng Yun 1C
Long March 4B | Feng Yun 1C

Agency: N/A

Status: Launch Successful

Launch date: May 10, 1999, 1:33 a.m. UTC

Rocket: Long March 4B

Launch pad: Launch Complex 7

Location: Taiyuan Satellite Launch Center, People's Republic of China

...

Latest news about this satellite

There are no fresh news available about this satellite. Check back as we update our databases every day.


Newsletter sign-up

Weekly statistics, charts and insights to help you stay on top of the space industry.